Weather History for Caldwell, ID

Change the Weather History Date:

Thursday, March 7, 2013

  Actual Average (KBOI) Record (KBOI)
Temperature  
Mean Temperature 37 °F 42 °F  
Max Temperature 50 °F 52 °F 66 °F (1954)
Min Temperature 24 °F 33 °F 9 °F (1882)
Degree Days  
Heating Degree Days 28 23  
Month to date heating degree days 165  
Since 1 July heating degree days 4324  
Cooling Degree Days 0 0  
Month to date cooling degree days 0  
Year to date cooling degree days 0  
Moisture  
Dew Point 21 °F    
Average Humidity 52    
Maximum Humidity 74    
Minimum Humidity 30    
Precipitation  
Precipitation 0.00 in 0.04 in 0.55 in (1887)
Month to date precipitation 0.29  
Year to date precipitation 2.52  
Snow  
Snow 0.00 in 0.00 in 4.30 in (1974)
Month to date snowfall 0.4  
Since 1 July snowfall 18.0  
Snow Depth -    
Sea Level Pressure  
Sea Level Pressure 30.00 in    
Wind  
Wind Speed 4 mph (NNW)    
Max Wind Speed 8 mph    
Max Gust Speed -    
Visibility 10 miles    
Events      
T = Trace of Precipitation, MM = Missing Value Source: NWS Daily Summary

Daily Weather History Graph

Daily Weather History Graph

Search for Another Location

Airport:

Trip Planner

Search our weather history database for the weather conditions in past years. The results will help you decide how hot, cold, wet, or windy it might be!

Date:

Astronomy

Mar. 07, 2013 Rise Set
Actual Time 7:12 AM MST 6:43 PM MST
Civil Twilight 6:43 AM MST 7:11 PM MST
Nautical Twilight 6:10 AM MST 7:45 PM MST
Astronomical Twilight 5:37 AM MST 8:18 PM MST
Moon 4:22 AM MST (3/7) 2:29 PM MST (3/7)
Length of Visible Light 12h 28m
Length of Day
11h 31m
Waning Crescent, 19% of the Moon is Illuminated
Mar 7
Waning Crescent
Mar 11
New
Mar 19
First Quarter
Mar 27
Full
Apr 2
Last Quarter

Hourly Weather History & Observations

Time (MST) Temp. Windchill Dew Point Humidity Pressure Visibility Wind Dir Wind Speed Gust Speed Precip Events Conditions
12:15 AM 35.6 °F 29.2 °F 21.2 °F 56% 29.98 in 10.0 mi SW 8.1 mph - N/A   Clear
12:35 AM 35.6 °F 29.9 °F 21.2 °F 56% 29.99 in 10.0 mi WSW 6.9 mph - N/A   Clear
12:55 AM 32.0 °F 25.6 °F 19.4 °F 60% 30.00 in 10.0 mi East 6.9 mph - N/A   Partly Cloudy
1:15 AM 33.8 °F - 21.2 °F 60% 30.00 in 10.0 mi Calm Calm - N/A   Clear
1:35 AM 33.8 °F 29.6 °F 19.4 °F 56% 30.01 in 10.0 mi SW 4.6 mph - N/A   Clear
1:55 AM 30.2 °F 23.4 °F 19.4 °F 64% 30.01 in 10.0 mi NE 6.9 mph - N/A   Clear
2:15 AM 28.4 °F 23.3 °F 17.6 °F 64% 30.02 in 10.0 mi SSE 4.6 mph - N/A   Scattered Clouds
2:35 AM 33.8 °F - 21.2 °F 60% 30.02 in 10.0 mi Calm Calm - N/A   Partly Cloudy
2:55 AM 28.4 °F 21.2 °F 17.6 °F 64% 30.02 in 10.0 mi East 6.9 mph - N/A   Clear
3:15 AM 28.4 °F - 17.6 °F 64% 30.02 in 10.0 mi Calm Calm - N/A   Clear
3:35 AM 28.4 °F 23.3 °F 17.6 °F 64% 30.01 in 10.0 mi NW 4.6 mph - N/A   Clear
3:55 AM 26.6 °F 19.1 °F 17.6 °F 69% 30.01 in 10.0 mi NE 6.9 mph - N/A   Clear
4:15 AM 26.6 °F 21.2 °F 17.6 °F 69% 30.01 in 10.0 mi East 4.6 mph - N/A   Clear
4:35 AM 26.6 °F 20.0 °F 17.6 °F 69% 30.00 in 10.0 mi East 5.8 mph - N/A   Clear
4:55 AM 24.8 °F 20.5 °F 17.6 °F 74% 30.01 in 10.0 mi East 3.5 mph - N/A   Clear
5:15 AM 26.6 °F 22.6 °F 19.4 °F 74% 30.02 in 10.0 mi SE 3.5 mph - N/A   Clear
5:35 AM 26.6 °F 22.6 °F 19.4 °F 74% 30.02 in 10.0 mi South 3.5 mph - N/A   Clear
5:55 AM 26.6 °F - 17.6 °F 69% 30.02 in 10.0 mi Calm Calm - N/A   Clear
6:15 AM 26.6 °F 22.6 °F 17.6 °F 69% 30.03 in 10.0 mi South 3.5 mph - N/A   Clear
6:35 AM 26.6 °F 21.2 °F 17.6 °F 69% 30.03 in 10.0 mi South 4.6 mph - N/A   Clear
6:55 AM 26.6 °F 21.2 °F 17.6 °F 69% 30.04 in 10.0 mi South 4.6 mph - N/A   Clear
7:15 AM 24.8 °F 20.5 °F 17.6 °F 74% 30.04 in 10.0 mi South 3.5 mph - N/A   Clear
7:35 AM 24.8 °F 20.5 °F 17.6 °F 74% 30.05 in 10.0 mi SSE 3.5 mph - N/A   Clear
7:55 AM 24.8 °F 20.5 °F 17.6 °F 74% 30.06 in 10.0 mi SSE 3.5 mph - N/A   Clear
8:15 AM 28.4 °F - 19.4 °F 69% 30.06 in 10.0 mi Calm Calm - N/A   Clear
8:35 AM 30.2 °F 25.4 °F 21.2 °F 69% 30.06 in 10.0 mi ENE 4.6 mph - N/A   Clear
8:55 AM 32.0 °F 28.7 °F 21.2 °F 64% 30.06 in 10.0 mi NE 3.5 mph - N/A   Clear
9:15 AM 33.8 °F - 21.2 °F 60% 30.07 in 10.0 mi Calm Calm - N/A   Clear
9:35 AM 37.4 °F 34.9 °F 24.8 °F 60% 30.07 in 10.0 mi NE 3.5 mph - N/A   Clear
9:55 AM 39.2 °F 37.0 °F 24.8 °F 56% 30.06 in 10.0 mi NNE 3.5 mph - N/A   Clear
10:15 AM 41.0 °F 37.1 °F 26.6 °F 57% 30.06 in 10.0 mi NNE 5.8 mph - N/A   Clear
10:35 AM 42.8 °F 41.1 °F 24.8 °F 49% 30.06 in 10.0 mi North 3.5 mph - N/A   Clear
10:55 AM 44.6 °F 42.2 °F 24.8 °F 46% 30.07 in 10.0 mi NNE 4.6 mph - N/A   Clear
11:15 AM 44.6 °F - 24.8 °F 46% 30.06 in 10.0 mi Calm Calm - N/A   Clear
11:35 AM 46.4 °F 45.2 °F 24.8 °F 43% 30.05 in 10.0 mi NE 3.5 mph - N/A   Clear
11:55 AM 46.4 °F 44.3 °F 24.8 °F 43% 30.05 in 10.0 mi NE 4.6 mph - N/A   Clear
12:15 PM 46.4 °F - 24.8 °F 43% 30.04 in 10.0 mi Calm Calm - N/A   Clear
12:35 PM 46.4 °F - 23.0 °F 40% 30.04 in 10.0 mi Calm Calm - N/A   Clear
12:55 PM 48.2 °F - 23.0 °F 37% 30.03 in 10.0 mi Calm Calm - N/A   Clear
1:15 PM 46.4 °F - 23.0 °F 40% 30.02 in 10.0 mi Calm Calm - N/A   Clear
1:35 PM 48.2 °F - 21.2 °F 34% 30.00 in 10.0 mi East 6.9 mph - N/A   Clear
1:55 PM 48.2 °F - 21.2 °F 34% 29.99 in 10.0 mi SW 4.6 mph - N/A   Clear
2:15 PM 50.0 °F - 21.2 °F 32% 29.99 in 5.0 mi Calm Calm - N/A   Clear
2:35 PM 48.2 °F - 21.2 °F 34% 29.98 in 10.0 mi South 3.5 mph - N/A   Clear
2:55 PM 50.0 °F - 21.2 °F 32% 29.98 in 5.0 mi NE 3.5 mph - N/A   Clear
3:15 PM 50.0 °F - 21.2 °F 32% 29.97 in 10.0 mi NE 4.6 mph - N/A   Clear
3:35 PM 48.2 °F - 21.2 °F 34% 29.97 in 10.0 mi WNW 4.6 mph - N/A   Clear
3:55 PM 50.0 °F - 19.4 °F 30% 29.97 in 10.0 mi Calm Calm - N/A   Clear
4:15 PM 48.2 °F - 19.4 °F 32% 29.97 in 10.0 mi WNW 6.9 mph - N/A   Clear
4:35 PM 48.2 °F - 19.4 °F 32% 29.96 in 10.0 mi WNW 4.6 mph - N/A   Clear
4:55 PM 48.2 °F - 21.2 °F 34% 29.96 in 10.0 mi NNW 3.5 mph - N/A   Clear
5:15 PM 48.2 °F - 19.4 °F 32% 29.96 in 10.0 mi West 6.9 mph - N/A   Clear
5:35 PM 48.2 °F - 21.2 °F 34% 29.95 in 10.0 mi NW 4.6 mph - N/A   Clear
5:55 PM 48.2 °F - 21.2 °F 34% 29.95 in 10.0 mi WNW 6.9 mph - N/A   Clear
6:15 PM 46.4 °F 42.9 °F 21.2 °F 37% 29.96 in 10.0 mi NW 6.9 mph - N/A   Clear
6:35 PM 46.4 °F 42.9 °F 21.2 °F 37% 29.96 in 10.0 mi WNW 6.9 mph - N/A   Clear
6:55 PM 44.6 °F 41.4 °F 23.0 °F 43% 29.96 in 10.0 mi WNW 5.8 mph - N/A   Clear
7:15 PM 44.6 °F 41.4 °F 23.0 °F 43% 29.96 in 10.0 mi WNW 5.8 mph - N/A   Clear
7:35 PM 42.8 °F 39.3 °F 21.2 °F 42% 29.96 in 10.0 mi WNW 5.8 mph - N/A   Clear
7:55 PM 42.8 °F 39.3 °F 21.2 °F 42% 29.96 in 10.0 mi NW 5.8 mph - N/A   Clear
8:15 PM 42.8 °F 39.3 °F 21.2 °F 42% 29.96 in 10.0 mi NW 5.8 mph - N/A   Clear
8:35 PM 42.8 °F 39.3 °F 21.2 °F 42% 29.96 in 10.0 mi NNW 5.8 mph - N/A   Partly Cloudy
8:55 PM 39.2 °F 34.2 °F 21.2 °F 49% 29.96 in 10.0 mi North 6.9 mph - N/A   Partly Cloudy
9:15 PM 37.4 °F 32.8 °F 21.2 °F 52% 29.96 in 10.0 mi NNW 5.8 mph - N/A   Partly Cloudy
9:35 PM 35.6 °F 32.8 °F 19.4 °F 52% 29.96 in 10.0 mi North 3.5 mph - N/A   Clear
9:55 PM 37.4 °F 34.9 °F 21.2 °F 52% 29.96 in 10.0 mi North 3.5 mph - N/A   Clear
10:35 PM 35.6 °F - 21.2 °F 56% 29.95 in 10.0 mi Calm Calm - N/A   Clear
10:55 PM 35.6 °F 31.7 °F 21.2 °F 56% 29.95 in 10.0 mi WNW 4.6 mph - N/A   Clear
11:15 PM 35.6 °F 31.7 °F 21.2 °F 56% 29.95 in 10.0 mi West 4.6 mph - N/A   Clear
11:35 PM 35.6 °F 32.8 °F 21.2 °F 56% 29.95 in 10.0 mi WNW 3.5 mph - N/A   Clear
11:55 PM 33.8 °F 29.6 °F 21.2 °F 60% 29.95 in 10.0 mi West 4.6 mph - N/A   Clear